Content
SEND FEEDBACK

Daily
Averages
Monthly
Summary
Mexico

CANCUN, QUINTANA ROO


Home > North America > Mexico > Quintana Roo
Elevation: 9 meters     Latitude: 21 09N     Longitude: 086 49W

WEATHER
 
SELECT A DAY
Number of Records: 163,723;   Date Range: 1/1/95 - 7/28/14
 
SHARE

PRINT THIS DATA

[ ← Previous Day ]
WEATHER ALMANAC - 8 SEPTEMBER, 2013
[ Next Day → ]
[ °F ]   °C
Weather ElementAverageHighLow
Temperature26.9 °C30 °C (8:46 am)24 °C (6:44 am)
Dewpoint24.2 °C25 °C (2:44 am)22 °C (3:48 pm)
Humidity85.3 %100 % (11:46 pm)70 % (9:49 am)
Barometer1011.5 hPa1012.5 hPa (9:49 am)1010.2 hPa (2:41 pm)
Wind Speed8.9 km/h20.4 km/h (10:43 am)
Weather ElementAverage
Visibility10.9 km
Wind DirectionESE (123.3 °)

Weather ElementTotal
Precipitation---
Cooling Degree Days8.7 (Base 18.3)
Growing Degree Days17 (Base 10)
Averaged from 24 records on 8 September, 2013
WEATHER CONDITIONS BREAKOUT
WIND DIRECTION BREAKOUT
WEATHER BY HOUR - 8 SEPTEMBER, 2013
[ °F ]   °C
Local TimeTemperatureDewpointHumidityBarometerVisibilityWind DirectionWind SpeedGust SpeedPrecipitationEventsConditions
1:44 AM27 °C24 °C84 %1011.5 hPa11.3 kmEast (80°)9.3 km/hScattered Clouds
2:44 AM27 °C25 °C89 %1011.2 hPa11.3 kmEast (80°)5.6 km/hScattered Clouds
3:40 AM27 °C24 °C84 %1010.8 hPa11.3 kmENE (70°)5.6 km/hScattered Clouds
4:43 AM26 °C24 °C89 %1011.2 hPa11.3 kmCalmScattered Clouds
5:43 AM25 °C24 °C94 %1011.2 hPa11.3 kmCalmScattered Clouds
6:44 AM24 °C23 °C94 %1011.5 hPa11.3 kmCalmScattered Clouds
7:48 AM28 °C25 °C84 %1011.9 hPa11.3 kmESE (110°)9.3 km/hScattered Clouds
8:46 AM30 °C25 °C74 %1012.2 hPa11.3 kmESE (110°)14.8 km/hScattered Clouds
9:49 AM30 °C24 °C70 %1012.5 hPa11.3 kmESE (110°)14.8 km/hScattered Clouds
10:43 AM30 °C25 °C74 %1012.2 hPa11.3 kmESE (120°)20.4 km/hMostly Cloudy
11:40 AM29 °C25 °C79 %1011.9 hPa11.3 kmEast (80°)14.8 km/hMostly Cloudy
12:41 PM30 °C25 °C74 %1011.9 hPa11.3 kmEast (100°)13 km/hMostly Cloudy
1:40 PM30 °C25 °C74 %1010.5 hPa11.3 kmEast (100°)18.5 km/hMostly Cloudy
2:41 PM29 °C24 °C74 %1010.2 hPa11.3 kmESE (110°)14.8 km/hMostly Cloudy
3:48 PM27 °C22 °C74 %1010.2 hPa9.7 kmESE (110°)20.4 km/hMostly Cloudy
4:40 PM26 °C23 °C83 %1010.2 hPa9.7 kmSSE (150°)11.1 km/hOvercast
5:41 PM26 °C24 °C89 %1010.8 hPa9.7 kmCalmRainLight Rain
6:45 PM25 °C24 °C94 %1010.8 hPa9.7 kmWNW (300°)7.4 km/hRainLight Rain
7:46 PM25 °C24 °C94 %1011.2 hPa9.7 kmNNW (340°)7.4 km/hRainLight Rain
8:13 PM25 °C24 °C94 %1011.5 hPa11.3 kmNNW (330°)5.6 km/hOvercast
8:44 PM25 °C24 °C94 %1011.9 hPa11.3 kmCalmOvercast
9:48 PM25 °C24 °C94 %1011.5 hPa11.3 kmNW (320°)9.3 km/hOvercast
10:47 PM25 °C24 °C94 %1012.5 hPa11.3 kmNNW (340°)9.3 km/hOvercast
11:46 PM25 °C25 °C100 %1012.2 hPa11.3 kmCalmOvercast
Hourly data recorded from MMUN, located 0 kilometers away from Cancun, Quintana Roo







STORIES FROM OUR PARTNERS